Hailey, ID

7:42 AM MDT on May 26, 2017 (GMT -0600)
Friedman Memorial

Weather History for KSUN - January, 2014

Change the Weather History Date:

Sunday, January 26, 2014

  Actual Average Record
Temperature  
Mean Temperature 14 °F -  
Max Temperature 21 °F 34 °F 51 °F (2015)
Min Temperature 8 °F 14 °F 1 °F (2009)
Degree Days  
Heating Degree Days 50    
Moisture  
Dew Point 16 °F    
Average Humidity 95    
Maximum Humidity 100    
Minimum Humidity 86    
Precipitation  
Precipitation 0.00 in - - ()
Sea Level Pressure  
Sea Level Pressure 30.14 in    
Wind  
Wind Speed 3 mph (East)    
Max Wind Speed 18 mph    
Max Gust Speed -    
Visibility 6 miles    
Events Fog    
Averages and records for this station are not official NWS values.
T = Trace of Precipitation, MM = Missing Value Source: NWS Daily Summary

Daily Weather History Graph

Daily Weather History Graph

Search for Another Location

Airport or City:

Trip Planner

Search our weather history database for the weather conditions in past years. The results will help you decide how hot, cold, wet, or windy it might be!

Date:

Astronomy

Jan. 26, 2014 Rise Set
Actual Time 7:59 AM MST 5:40 PM MST
Civil Twilight 7:28 AM MST 6:11 PM MST
Nautical Twilight 6:53 AM MST 6:46 PM MST
Astronomical Twilight 6:20 AM MST 7:20 PM MST
Moon 3:41 AM MST 1:32 PM MST
Length of Visible Light 10h 43m
Length of Day
9h 41m
Waning Crescent, 23% of the Moon is Illuminated
Jan 26
Waning Crescent
Jan 30
New
Feb 6
First Quarter
Feb 14
Full
Feb 22
Last Quarter

Hourly Weather History & Observations

Time (MST) Temp. Windchill Dew Point Humidity Pressure Visibility Wind Dir Wind Speed Gust Speed Precip Events Conditions
12:15 AM 21.2 °F 16.4 °F 19.4 °F 93% 30.23 in 10.0 mi North 3.5 mph - N/A   Clear
12:35 AM 19.4 °F - 17.6 °F 93% 30.23 in 10.0 mi Calm Calm - N/A   Clear
12:55 AM 15.8 °F - 14.0 °F 93% 30.22 in 1.0 mi Calm Calm - N/A   Mist
1:15 AM 17.6 °F - 15.8 °F 93% 30.22 in 0.2 mi Calm Calm - N/A Fog Light Freezing Fog
1:35 AM 17.6 °F - 17.6 °F 100% 30.21 in 5.0 mi Calm Calm - N/A   Clear
1:55 AM 17.6 °F - 15.8 °F 93% 30.21 in 7.0 mi Calm Calm - N/A   Clear
2:15 AM 17.6 °F - 15.8 °F 93% 30.21 in 7.0 mi Calm Calm - N/A   Clear
2:35 AM 17.6 °F - 15.8 °F 93% 30.21 in 7.0 mi Calm Calm - N/A   Clear
2:55 AM 17.6 °F - 15.8 °F 93% 30.21 in 10.0 mi Calm Calm - N/A   Clear
3:15 AM 17.6 °F - 15.8 °F 93% 30.20 in 10.0 mi Calm Calm - N/A   Clear
3:35 AM 17.6 °F - 14.0 °F 86% 30.19 in 10.0 mi Calm Calm - N/A   Clear
3:55 AM 15.8 °F 10.2 °F 14.0 °F 93% 30.18 in 10.0 mi NNW 3.5 mph - N/A   Clear
4:15 AM 15.8 °F - 14.0 °F 93% 30.18 in 10.0 mi Calm Calm - N/A   Clear
4:35 AM 17.6 °F - 14.0 °F 86% 30.18 in 10.0 mi Calm Calm - N/A   Clear
4:55 AM 15.8 °F - 14.0 °F 93% 30.17 in 10.0 mi Calm Calm - N/A   Clear
5:15 AM 15.8 °F 8.6 °F 14.0 °F 93% 30.16 in 10.0 mi North 4.6 mph - N/A   Clear
5:35 AM 15.8 °F 10.2 °F 14.0 °F 93% 30.16 in 10.0 mi North 3.5 mph - N/A   Clear
5:55 AM 12.2 °F - 10.4 °F 92% 30.16 in 10.0 mi Calm Calm - N/A   Clear
6:50 AM 10.4 °F 0.8 °F 8.6 °F 92% 30.16 in 0.2 mi ESE 5.8 mph - N/A Fog Light Freezing Fog
7:50 AM 10.4 °F - 8.6 °F 92% 30.16 in 0.2 mi Calm Calm - N/A Fog Light Freezing Fog
8:20 AM 8.6 °F - 8.6 °F 100% 30.16 in 7.0 mi Calm Calm - N/A   Partly Cloudy
8:50 AM 10.4 °F 0.8 °F 8.6 °F 92% 30.16 in 7.0 mi WNW 5.8 mph - N/A   Partly Cloudy
9:47 AM 15.8 °F - 15.8 °F 100% 30.15 in 7.0 mi Calm Calm - N/A   Partly Cloudy
10:47 AM 15.8 °F 2.7 °F 14.0 °F 93% 30.15 in 7.0 mi SE 11.5 mph - N/A   Partly Cloudy
11:20 AM 15.8 °F -0.2 °F 15.8 °F 100% 30.16 in 1.0 mi SE 17.3 mph - N/A Fog Light Freezing Fog
11:49 AM 17.6 °F 2.2 °F 15.8 °F 93% 30.15 in 1.0 mi ESE 17.3 mph - N/A Fog Light Freezing Fog
12:55 PM 17.6 °F 5.0 °F 17.6 °F 100% 30.12 in 1.0 mi SE 11.5 mph - N/A Fog Light Freezing Fog
1:47 PM 19.4 °F 8.6 °F 19.4 °F 100% 30.10 in 7.0 mi SE 9.2 mph - N/A   Partly Cloudy
2:47 PM 21.2 °F 9.5 °F 21.2 °F 100% 30.08 in 10.0 mi SE 11.5 mph - N/A   Partly Cloudy
3:47 PM 21.2 °F 7.3 °F 19.4 °F 93% 30.07 in 5.0 mi SE 16.1 mph - N/A Fog Light Freezing Fog
3:55 PM 21.2 °F 6.4 °F 19.4 °F 93% 30.07 in 2.0 mi SE 18.4 mph - N/A Fog Light Freezing Fog
4:47 PM 21.2 °F 7.8 °F 21.2 °F 100% 30.08 in 2.0 mi SE 15.0 mph - N/A Fog Light Freezing Fog
5:47 PM 21.2 °F 11.7 °F 19.4 °F 93% 30.09 in 2.0 mi SE 8.1 mph - N/A   Overcast
6:47 PM 21.2 °F - 19.4 °F 93% 30.08 in 5.0 mi Calm Calm - N/A   Overcast
7:47 PM 21.2 °F 14.9 °F 19.4 °F 93% 30.08 in 7.0 mi WNW 4.6 mph - N/A   Partly Cloudy
8:47 PM 21.2 °F 14.9 °F 19.4 °F 93% 30.08 in 5.0 mi SE 4.6 mph - N/A   Partly Cloudy
9:47 PM 19.4 °F - 19.4 °F 100% 30.07 in 5.0 mi Calm Calm - N/A   Partly Cloudy
10:15 PM 19.4 °F - 19.4 °F 100% 30.08 in 7.0 mi Calm Calm - N/A   Clear
10:35 PM 19.4 °F - 19.4 °F 100% 30.08 in 7.0 mi Calm Calm - N/A   Clear
10:47 PM 17.6 °F 10.7 °F 15.8 °F 93% 30.08 in 5.0 mi WNW 4.6 mph - N/A   Partly Cloudy
10:55 PM 19.4 °F - 19.4 °F 100% 30.07 in 7.0 mi Calm Calm - N/A   Clear
11:15 PM 19.4 °F 14.3 °F 19.4 °F 100% 30.07 in 7.0 mi NNW 3.5 mph - N/A   Clear
11:35 PM 21.2 °F 14.9 °F 19.4 °F 93% 30.07 in 7.0 mi NW 4.6 mph - N/A   Clear
11:55 PM 19.4 °F 14.3 °F 19.4 °F 100% 30.07 in 7.0 mi North 3.5 mph - N/A   Clear